Time,TemperatureF,DewpointF,PressureIn,WindDirection,WindDirectionDegrees,WindSpeedMPH,WindSpeedGustMPH,Humidity,HourlyPrecipIn,Conditions,Clouds,dailyrainin,SoftwareType,DateUTC
2013-05-17 00:00:00,47.6,39.0,29.86,WNW,294,3.0,3.0,72,0.00,,,0.00,Wunderground v.1.15,2013-05-17 04:00:00,
2013-05-17 00:05:00,47.4,38.8,29.86,SW,236,2.0,5.0,72,0.00,,,0.00,Wunderground v.1.15,2013-05-17 04:05:00,
2013-05-17 00:10:00,47.1,38.5,29.86,WNW,292,3.0,3.0,72,0.00,,,0.00,Wunderground v.1.15,2013-05-17 04:10:00,
2013-05-17 00:15:00,46.9,38.3,29.86,WSW,250,3.0,5.0,72,0.00,,,0.00,Wunderground v.1.15,2013-05-17 04:15:00,
2013-05-17 00:20:00,46.7,38.1,29.86,SW,232,3.0,3.0,72,0.00,,,0.00,Wunderground v.1.15,2013-05-17 04:20:00,
2013-05-17 00:25:00,46.7,38.5,29.86,WSW,252,3.0,3.0,73,0.00,,,0.00,Wunderground v.1.15,2013-05-17 04:25:00,
2013-05-17 00:30:00,46.6,38.4,29.86,NNW,332,2.0,4.0,73,0.00,,,0.00,Wunderground v.1.15,2013-05-17 04:30:00,
2013-05-17 00:40:00,46.5,38.7,29.86,WSW,238,2.0,5.0,74,0.00,,,0.00,Wunderground v.1.15,2013-05-17 04:40:00,
2013-05-17 00:45:00,46.5,38.7,29.86,West,265,3.0,5.0,74,0.00,,,0.00,Wunderground v.1.15,2013-05-17 04:45:00,
2013-05-17 00:50:00,46.5,38.7,29.86,North,5,3.0,3.0,74,0.00,,,0.00,Wunderground v.1.15,2013-05-17 04:50:00,
2013-05-17 00:55:00,46.5,38.7,29.87,West,270,3.0,3.0,74,0.00,,,0.00,Wunderground v.1.15,2013-05-17 04:55:00,
2013-05-17 01:00:00,46.4,38.6,29.87,West,279,2.0,3.0,74,0.00,,,0.00,Wunderground v.1.15,2013-05-17 05:00:00,
2013-05-17 01:05:00,46.4,38.6,29.86,NNW,327,3.0,3.0,74,0.00,,,0.00,Wunderground v.1.15,2013-05-17 05:05:00,
2013-05-17 01:10:00,46.3,38.8,29.87,NNW,334,3.0,7.0,75,0.00,,,0.00,Wunderground v.1.15,2013-05-17 05:10:00,
2013-05-17 01:15:00,46.2,38.7,29.86,WNW,295,3.0,7.0,75,0.00,,,0.00,Wunderground v.1.15,2013-05-17 05:15:00,
2013-05-17 01:20:00,46.1,38.6,29.86,West,275,4.0,4.0,75,0.00,,,0.00,Wunderground v.1.15,2013-05-17 05:20:00,
2013-05-17 01:25:00,45.8,38.3,29.86,WSW,258,4.0,4.0,75,0.00,,,0.00,Wunderground v.1.15,2013-05-17 05:25:00,
2013-05-17 01:35:00,45.6,38.5,29.86,NNE,25,2.0,4.0,76,0.00,,,0.00,Wunderground v.1.15,2013-05-17 05:35:00,
2013-05-17 01:40:00,45.4,38.3,29.87,WNW,298,2.0,2.0,76,0.00,,,0.00,Wunderground v.1.15,2013-05-17 05:40:00,
2013-05-17 01:45:00,45.3,38.5,29.87,West,275,2.0,2.0,77,0.00,,,0.00,Wunderground v.1.15,2013-05-17 05:45:00,
2013-05-17 01:50:00,45.1,38.3,29.87,WNW,298,2.0,2.0,77,0.00,,,0.00,Wunderground v.1.15,2013-05-17 05:50:00,
2013-05-17 01:55:00,45.0,38.6,29.88,NNW,342,1.0,2.0,78,0.00,,,0.00,Wunderground v.1.15,2013-05-17 05:55:00,
2013-05-17 02:00:00,44.9,38.5,29.88,NW,313,1.0,2.0,78,0.00,,,0.00,Wunderground v.1.15,2013-05-17 06:00:00,
2013-05-17 02:05:00,45.0,38.6,29.88,NNE,21,2.0,5.0,78,0.00,,,0.00,Wunderground v.1.15,2013-05-17 06:05:00,
2013-05-17 02:10:00,45.1,38.6,29.88,NW,312,2.0,2.0,78,0.00,,,0.00,Wunderground v.1.15,2013-05-17 06:10:00,
2013-05-17 02:15:00,45.1,38.6,29.88,SSW,198,2.0,2.0,78,0.00,,,0.00,Wunderground v.1.15,2013-05-17 06:15:00,
2013-05-17 02:20:00,45.1,38.6,29.88,WNW,285,1.0,1.0,78,0.00,,,0.00,Wunderground v.1.15,2013-05-17 06:20:00,
2013-05-17 02:25:00,45.1,38.6,29.88,WNW,285,1.0,1.0,78,0.00,,,0.00,Wunderground v.1.15,2013-05-17 06:25:00,
2013-05-17 02:40:00,45.2,38.7,29.88,NNW,339,1.0,1.0,78,0.00,,,0.00,Wunderground v.1.15,2013-05-17 06:40:00,
2013-05-17 02:45:00,45.2,38.7,29.88,SW,234,1.0,1.0,78,0.00,,,0.00,Wunderground v.1.15,2013-05-17 06:45:00,
2013-05-17 02:50:00,45.2,38.7,29.88,West,266,1.0,1.0,78,0.00,,,0.00,Wunderground v.1.15,2013-05-17 06:50:00,
2013-05-17 02:55:00,45.1,38.6,29.88,NNE,14,1.0,3.0,78,0.00,,,0.00,Wunderground v.1.15,2013-05-17 06:55:00,
2013-05-17 03:00:00,45.1,38.6,29.88,WNW,299,2.0,2.0,78,0.00,,,0.00,Wunderground v.1.15,2013-05-17 07:00:00,
2013-05-17 03:05:00,45.1,38.6,29.89,WSW,252,2.0,3.0,78,0.00,,,0.00,Wunderground v.1.15,2013-05-17 07:05:00,
2013-05-17 03:10:00,45.1,38.6,29.89,WSW,258,1.0,2.0,78,0.00,,,0.00,Wunderground v.1.15,2013-05-17 07:10:00,
2013-05-17 03:15:00,45.0,38.6,29.89,NNW,334,1.0,4.0,78,0.00,,,0.00,Wunderground v.1.15,2013-05-17 07:15:00,
2013-05-17 03:20:00,45.0,38.6,29.89,NNW,336,2.0,2.0,78,0.00,,,0.00,Wunderground v.1.15,2013-05-17 07:20:00,
2013-05-17 03:25:00,44.9,38.8,29.89,North,355,2.0,2.0,79,0.00,,,0.00,Wunderground v.1.15,2013-05-17 07:25:00,
2013-05-17 03:30:00,44.7,38.6,29.90,NW,321,1.0,1.0,79,0.00,,,0.00,Wunderground v.1.15,2013-05-17 07:30:00,
2013-05-17 03:35:00,44.6,38.5,29.90,NW,305,2.0,2.0,79,0.00,,,0.00,Wunderground v.1.15,2013-05-17 07:35:00,
2013-05-17 03:40:00,44.5,38.7,29.90,WNW,292,2.0,6.0,80,0.00,,,0.00,Wunderground v.1.15,2013-05-17 07:40:00,
2013-05-17 03:45:00,44.4,38.6,29.90,NW,309,2.0,6.0,80,0.00,,,0.00,Wunderground v.1.15,2013-05-17 07:45:00,
2013-05-17 03:55:00,44.2,38.4,29.90,WNW,290,2.0,3.0,80,0.00,,,0.00,Wunderground v.1.15,2013-05-17 07:55:00,
2013-05-17 04:05:00,44.2,38.7,29.91,WSW,244,2.0,5.0,81,0.00,,,0.00,Wunderground v.1.15,2013-05-17 08:05:00,
2013-05-17 04:15:00,44.2,38.7,29.91,West,269,2.0,2.0,81,0.00,,,0.00,Wunderground v.1.15,2013-05-17 08:15:00,
2013-05-17 04:20:00,44.2,38.7,29.91,West,269,2.0,2.0,81,0.00,,,0.00,Wunderground v.1.15,2013-05-17 08:20:00,
2013-05-17 04:25:00,44.2,39.1,29.91,West,269,1.0,2.0,82,0.00,,,0.00,Wunderground v.1.15,2013-05-17 08:25:00,
2013-05-17 04:30:00,44.2,39.1,29.91,West,269,0.0,0.0,82,0.00,,,0.00,Wunderground v.1.15,2013-05-17 08:30:00,
2013-05-17 04:40:00,44.3,39.5,29.92,NW,326,3.0,3.0,83,0.00,,,0.00,Wunderground v.1.15,2013-05-17 08:40:00,
2013-05-17 04:45:00,44.3,39.5,29.92,West,280,2.0,3.0,83,0.00,,,0.00,Wunderground v.1.15,2013-05-17 08:45:00,
2013-05-17 04:50:00,44.2,39.7,29.92,NW,324,1.0,1.0,84,0.00,,,0.00,Wunderground v.1.15,2013-05-17 08:50:00,
2013-05-17 04:55:00,44.2,39.7,29.92,NNE,19,1.0,3.0,84,0.00,,,0.00,Wunderground v.1.15,2013-05-17 08:55:00,
2013-05-17 05:00:00,44.1,39.6,29.92,WSW,240,1.0,3.0,84,0.00,,,0.00,Wunderground v.1.15,2013-05-17 09:00:00,
2013-05-17 05:05:00,44.1,39.9,29.92,WSW,248,2.0,3.0,85,0.00,,,0.00,Wunderground v.1.15,2013-05-17 09:05:00,
2013-05-17 05:10:00,44.0,39.8,29.93,SSW,212,2.0,2.0,85,0.00,,,0.00,Wunderground v.1.15,2013-05-17 09:10:00,
2013-05-17 05:15:00,44.0,40.1,29.93,WNW,290,2.0,2.0,86,0.00,,,0.00,Wunderground v.1.15,2013-05-17 09:15:00,
2013-05-17 05:20:00,43.9,40.0,29.93,West,281,2.0,2.0,86,0.00,,,0.00,Wunderground v.1.15,2013-05-17 09:20:00,
2013-05-17 05:25:00,43.8,40.2,29.93,West,272,2.0,2.0,87,0.00,,,0.00,Wunderground v.1.15,2013-05-17 09:25:00,
2013-05-17 05:30:00,43.8,40.2,29.94,SW,225,2.0,2.0,87,0.00,,,0.00,Wunderground v.1.15,2013-05-17 09:30:00,
2013-05-17 05:35:00,43.8,40.2,29.94,SW,229,1.0,2.0,87,0.00,,,0.00,Wunderground v.1.15,2013-05-17 09:35:00,
2013-05-17 05:40:00,43.9,40.3,29.94,WNW,302,2.0,3.0,87,0.00,,,0.00,Wunderground v.1.15,2013-05-17 09:40:00,
2013-05-17 05:45:00,43.9,40.6,29.94,SSW,200,2.0,3.0,88,0.00,,,0.00,Wunderground v.1.15,2013-05-17 09:45:00,
2013-05-17 05:50:00,43.9,40.6,29.94,SSW,210,2.0,2.0,88,0.00,,,0.00,Wunderground v.1.15,2013-05-17 09:50:00,
2013-05-17 06:00:00,43.7,41.0,29.95,West,272,0.0,3.0,90,0.00,,,0.00,Wunderground v.1.15,2013-05-17 10:00:00,
2013-05-17 06:05:00,43.7,41.0,29.95,WSW,248,1.0,3.0,90,0.00,,,0.00,Wunderground v.1.15,2013-05-17 10:05:00,
2013-05-17 06:10:00,43.6,41.1,29.95,WSW,248,1.0,1.0,91,0.00,,,0.00,Wunderground v.1.15,2013-05-17 10:10:00,
2013-05-17 06:15:00,43.6,41.1,29.95,WSW,248,0.0,1.0,91,0.00,,,0.00,Wunderground v.1.15,2013-05-17 10:15:00,
2013-05-17 06:20:00,43.6,41.1,29.95,NW,304,0.0,6.0,91,0.00,,,0.00,Wunderground v.1.15,2013-05-17 10:20:00,
2013-05-17 06:30:00,43.6,41.4,29.96,WNW,284,1.0,1.0,92,0.00,,,0.00,Wunderground v.1.15,2013-05-17 10:30:00,
2013-05-17 06:35:00,43.6,41.4,29.97,NNE,16,0.0,1.0,92,0.00,,,0.00,Wunderground v.1.15,2013-05-17 10:35:00,
2013-05-17 06:40:00,43.7,41.5,29.97,WNW,290,1.0,1.0,92,0.00,,,0.00,Wunderground v.1.15,2013-05-17 10:40:00,
2013-05-17 06:45:00,43.8,41.6,29.97,WSW,255,1.0,2.0,92,0.00,,,0.00,Wunderground v.1.15,2013-05-17 10:45:00,
2013-05-17 06:50:00,43.8,41.6,29.98,SW,236,2.0,2.0,92,0.00,,,0.00,Wunderground v.1.15,2013-05-17 10:50:00,
2013-05-17 06:55:00,43.9,41.7,29.98,WNW,287,3.0,3.0,92,0.00,,,0.00,Wunderground v.1.15,2013-05-17 10:55:00,
2013-05-17 07:00:00,44.0,41.8,29.98,WNW,288,1.0,1.0,92,0.00,,,0.00,Wunderground v.1.15,2013-05-17 11:00:00,
2013-05-17 07:05:00,44.0,41.8,29.99,WSW,252,0.0,1.0,92,0.00,,,0.00,Wunderground v.1.15,2013-05-17 11:05:00,
2013-05-17 07:10:00,44.0,41.8,29.99,WSW,250,1.0,1.0,92,0.00,,,0.00,Wunderground v.1.15,2013-05-17 11:10:00,
2013-05-17 07:20:00,44.1,41.6,30.00,NW,311,2.0,2.0,91,0.00,,,0.00,Wunderground v.1.15,2013-05-17 11:20:00,
2013-05-17 07:25:00,44.2,41.7,29.99,NW,323,2.0,2.0,91,0.00,,,0.00,Wunderground v.1.15,2013-05-17 11:25:00,
2013-05-17 07:35:00,44.5,41.7,30.00,West,262,2.0,2.0,90,0.00,,,0.00,Wunderground v.1.15,2013-05-17 11:35:00,
2013-05-17 07:40:00,44.7,42.2,30.00,WSW,251,1.0,1.0,91,0.00,,,0.00,Wunderground v.1.15,2013-05-17 11:40:00,
2013-05-17 07:45:00,45.0,42.2,30.00,North,360,2.0,2.0,90,0.00,,,0.00,Wunderground v.1.15,2013-05-17 11:45:00,
2013-05-17 07:50:00,45.1,42.1,30.01,West,265,2.0,2.0,89,0.00,,,0.00,Wunderground v.1.15,2013-05-17 11:50:00,
2013-05-17 07:55:00,45.2,42.2,30.01,WNW,301,1.0,3.0,89,0.00,,,0.00,Wunderground v.1.15,2013-05-17 11:55:00,
2013-05-17 08:00:00,45.3,42.2,30.01,NNW,331,1.0,1.0,89,0.00,,,0.00,Wunderground v.1.15,2013-05-17 12:00:00,
2013-05-17 08:05:00,45.4,42.1,30.01,NNE,13,1.0,2.0,88,0.00,,,0.00,Wunderground v.1.15,2013-05-17 12:05:00,
2013-05-17 08:10:00,45.4,42.1,30.01,WNW,290,1.0,3.0,88,0.00,,,0.00,Wunderground v.1.15,2013-05-17 12:10:00,
2013-05-17 08:15:00,45.5,42.2,30.01,NNE,21,2.0,3.0,88,0.00,,,0.00,Wunderground v.1.15,2013-05-17 12:15:00,
2013-05-17 08:20:00,45.6,42.3,30.02,NW,318,2.0,2.0,88,0.00,,,0.00,Wunderground v.1.15,2013-05-17 12:20:00,
2013-05-17 08:25:00,45.8,42.2,30.02,NNW,342,2.0,2.0,87,0.00,,,0.00,Wunderground v.1.15,2013-05-17 12:25:00,
2013-05-17 08:30:00,46.1,42.4,30.02,WSW,250,1.0,1.0,87,0.00,,,0.00,Wunderground v.1.15,2013-05-17 12:30:00,
2013-05-17 08:35:00,46.1,42.1,30.02,WSW,246,2.0,4.0,86,0.00,,,0.00,Wunderground v.1.15,2013-05-17 12:35:00,
2013-05-17 08:45:00,46.4,42.1,30.02,NW,325,2.0,2.0,85,0.00,,,0.00,Wunderground v.1.15,2013-05-17 12:45:00,
2013-05-17 08:50:00,46.4,42.1,30.02,North,360,1.0,1.0,85,0.00,,,0.00,Wunderground v.1.15,2013-05-17 12:50:00,
2013-05-17 08:55:00,46.5,41.9,30.03,WNW,302,2.0,3.0,84,0.00,,,0.00,Wunderground v.1.15,2013-05-17 12:55:00,
2013-05-17 09:05:00,46.3,40.8,30.03,NNW,348,3.0,3.0,81,0.00,,,0.00,Wunderground v.1.15,2013-05-17 13:05:00,
2013-05-17 09:10:00,46.3,40.5,30.03,North,355,4.0,7.0,80,0.00,,,0.00,Wunderground v.1.15,2013-05-17 13:10:00,
2013-05-17 09:15:00,46.3,40.5,30.04,NW,323,4.0,4.0,80,0.00,,,0.00,Wunderground v.1.15,2013-05-17 13:15:00,
2013-05-17 09:20:00,46.5,40.7,30.04,North,360,3.0,4.0,80,0.00,,,0.00,Wunderground v.1.15,2013-05-17 13:20:00,
2013-05-17 09:25:00,46.7,40.5,30.05,SW,227,2.0,2.0,79,0.00,,,0.00,Wunderground v.1.15,2013-05-17 13:25:00,
2013-05-17 09:30:00,46.6,40.4,30.05,North,360,4.0,4.0,79,0.00,,,0.00,Wunderground v.1.15,2013-05-17 13:30:00,
2013-05-17 09:40:00,46.8,40.6,30.06,NW,306,4.0,11.0,79,0.00,,,0.00,Wunderground v.1.15,2013-05-17 13:40:00,
2013-05-17 09:50:00,47.6,41.7,30.06,West,269,2.0,12.0,80,0.00,,,0.00,Wunderground v.1.15,2013-05-17 13:50:00,
2013-05-17 09:55:00,48.0,40.8,30.06,WSW,252,3.0,12.0,76,0.00,,,0.00,Wunderground v.1.15,2013-05-17 13:55:00,
2013-05-17 10:00:00,48.4,40.8,30.07,NNW,336,4.0,6.0,75,0.00,,,0.00,Wunderground v.1.15,2013-05-17 14:00:00,
2013-05-17 10:05:00,48.7,40.1,30.07,NNW,340,4.0,6.0,72,0.00,,,0.00,Wunderground v.1.15,2013-05-17 14:05:00,
2013-05-17 10:15:00,48.9,39.9,30.07,NNE,32,3.0,4.0,71,0.00,,,0.00,Wunderground v.1.15,2013-05-17 14:15:00,
2013-05-17 10:20:00,49.0,40.0,30.07,West,273,2.0,8.0,71,0.00,,,0.00,Wunderground v.1.15,2013-05-17 14:20:00,
2013-05-17 10:30:00,49.0,40.0,30.08,NW,319,4.0,4.0,71,0.00,,,0.00,Wunderground v.1.15,2013-05-17 14:30:00,
2013-05-17 10:35:00,49.4,40.4,30.08,SW,228,4.0,4.0,71,0.00,,,0.00,Wunderground v.1.15,2013-05-17 14:35:00,
2013-05-17 10:46:00,49.6,39.8,30.08,SW,223,3.0,4.0,69,0.00,,,0.00,Wunderground v.1.15,2013-05-17 14:46:00,
2013-05-17 10:50:00,49.9,40.1,30.08,WSW,238,3.0,3.0,69,0.00,,,0.00,Wunderground v.1.15,2013-05-17 14:50:00,
2013-05-17 10:55:00,50.2,41.2,30.08,SSW,193,2.0,3.0,71,0.00,,,0.00,Wunderground v.1.15,2013-05-17 14:55:00,
2013-05-17 11:00:00,50.6,40.4,30.08,NE,50,4.0,4.0,68,0.00,,,0.00,Wunderground v.1.15,2013-05-17 15:00:00,
2013-05-17 11:05:00,50.9,40.3,30.09,WNW,297,4.0,4.0,67,0.00,,,0.00,Wunderground v.1.15,2013-05-17 15:05:00,
2013-05-17 11:15:00,52.2,41.6,30.09,NW,319,4.0,8.0,67,0.00,,,0.00,Wunderground v.1.15,2013-05-17 15:15:00,
2013-05-17 11:20:00,53.0,40.3,30.08,WNW,282,3.0,8.0,62,0.00,,,0.00,Wunderground v.1.15,2013-05-17 15:20:00,
2013-05-17 11:31:00,53.5,39.9,30.08,North,10,5.0,6.0,60,0.00,,,0.00,Wunderground v.1.15,2013-05-17 15:31:00,
2013-05-17 11:35:00,53.9,40.8,30.08,NNW,344,5.0,6.0,61,0.00,,,0.00,Wunderground v.1.15,2013-05-17 15:35:00,
2013-05-17 11:40:00,54.2,41.0,30.08,NNW,332,5.0,6.0,61,0.00,,,0.00,Wunderground v.1.15,2013-05-17 15:40:00,
2013-05-17 11:45:00,54.6,39.7,30.08,North,360,6.0,6.0,57,0.00,,,0.00,Wunderground v.1.15,2013-05-17 15:45:00,
2013-05-17 11:50:00,55.3,39.9,30.08,North,9,5.0,5.0,56,0.00,,,0.00,Wunderground v.1.15,2013-05-17 15:50:00,
2013-05-17 11:55:00,55.6,40.6,30.08,North,360,4.0,5.0,57,0.00,,,0.00,Wunderground v.1.15,2013-05-17 15:55:00,
2013-05-17 12:01:00,55.3,39.9,30.08,WNW,301,5.0,5.0,56,0.00,,,0.00,Wunderground v.1.15,2013-05-17 16:01:00,
2013-05-17 12:05:00,55.5,38.6,30.08,WSW,257,6.0,6.0,53,0.00,,,0.00,Wunderground v.1.15,2013-05-17 16:05:00,
2013-05-17 12:10:00,56.1,38.7,30.08,West,266,6.0,6.0,52,0.00,,,0.00,Wunderground v.1.15,2013-05-17 16:10:00,
2013-05-17 12:16:00,56.9,40.4,30.08,West,281,4.0,7.0,54,0.00,,,0.00,Wunderground v.1.15,2013-05-17 16:16:00,
2013-05-17 12:20:00,57.0,40.0,30.08,NNE,17,4.0,8.0,53,0.00,,,0.00,Wunderground v.1.15,2013-05-17 16:20:00,
2013-05-17 12:25:00,57.1,41.1,30.07,SSE,165,5.0,8.0,55,0.00,,,0.00,Wunderground v.1.15,2013-05-17 16:25:00,
2013-05-17 12:31:00,57.1,39.1,30.08,NNE,19,6.0,6.0,51,0.00,,,0.00,Wunderground v.1.15,2013-05-17 16:31:00,
2013-05-17 12:35:00,56.8,39.4,30.08,NNE,25,7.0,7.0,52,0.00,,,0.00,Wunderground v.1.15,2013-05-17 16:35:00,
2013-05-17 12:41:00,57.2,40.2,30.08,North,5,6.0,7.0,53,0.00,,,0.00,Wunderground v.1.15,2013-05-17 16:41:00,
2013-05-17 12:45:00,57.3,40.3,30.08,WSW,254,5.0,7.0,53,0.00,,,0.00,Wunderground v.1.15,2013-05-17 16:45:00,
2013-05-17 12:50:00,57.3,39.8,30.08,WNW,285,6.0,7.0,52,0.00,,,0.00,Wunderground v.1.15,2013-05-17 16:50:00,
2013-05-17 12:55:00,57.5,39.0,30.08,WNW,296,6.0,9.0,50,0.00,,,0.00,Wunderground v.1.15,2013-05-17 16:55:00,
2013-05-17 13:00:00,57.7,41.2,30.08,NNW,337,6.0,10.0,54,0.00,,,0.00,Wunderground v.1.15,2013-05-17 17:00:00,
2013-05-17 13:05:00,58.3,41.2,30.08,WNW,286,6.0,10.0,53,0.00,,,0.00,Wunderground v.1.15,2013-05-17 17:05:00,
2013-05-17 13:10:00,58.3,40.2,30.08,North,5,7.0,7.0,51,0.00,,,0.00,Wunderground v.1.15,2013-05-17 17:10:00,
2013-05-17 13:15:00,58.3,40.2,30.08,North,355,7.0,8.0,51,0.00,,,0.00,Wunderground v.1.15,2013-05-17 17:15:00,
2013-05-17 13:21:00,58.2,39.6,30.08,West,269,6.0,6.0,50,0.00,,,0.00,Wunderground v.1.15,2013-05-17 17:21:00,
2013-05-17 13:25:00,58.2,39.6,30.08,WSW,253,5.0,6.0,50,0.00,,,0.00,Wunderground v.1.15,2013-05-17 17:25:00,
2013-05-17 13:31:00,57.8,39.8,30.08,NW,321,5.0,5.0,51,0.00,,,0.00,Wunderground v.1.15,2013-05-17 17:31:00,
2013-05-17 13:40:00,57.8,38.8,30.08,WNW,294,6.0,6.0,49,0.00,,,0.00,Wunderground v.1.15,2013-05-17 17:40:00,
2013-05-17 13:45:00,57.5,39.0,30.08,NW,323,5.0,6.0,50,0.00,,,0.00,Wunderground v.1.15,2013-05-17 17:45:00,
2013-05-17 13:51:00,57.0,39.5,30.08,NW,315,5.0,5.0,52,0.00,,,0.00,Wunderground v.1.15,2013-05-17 17:51:00,
2013-05-17 13:55:00,57.3,40.8,30.08,NNW,341,5.0,5.0,54,0.00,,,0.00,Wunderground v.1.15,2013-05-17 17:55:00,
2013-05-17 14:00:00,57.7,38.7,30.08,SW,227,5.0,9.0,49,0.00,,,0.00,Wunderground v.1.15,2013-05-17 18:00:00,
2013-05-17 14:05:00,57.7,38.7,30.09,WSW,247,6.0,9.0,49,0.00,,,0.00,Wunderground v.1.15,2013-05-17 18:05:00,
2013-05-17 14:10:00,57.5,37.9,30.08,West,268,6.0,8.0,48,0.00,,,0.00,Wunderground v.1.15,2013-05-17 18:10:00,
2013-05-17 14:20:00,57.6,39.1,30.09,NNW,341,6.0,6.0,50,0.00,,,0.00,Wunderground v.1.15,2013-05-17 18:20:00,
2013-05-17 14:26:00,58.2,40.6,30.09,NW,325,6.0,6.0,52,0.00,,,0.00,Wunderground v.1.15,2013-05-17 18:26:00,
2013-05-17 14:36:00,58.9,39.8,30.09,WNW,291,4.0,4.0,49,0.00,,,0.00,Wunderground v.1.15,2013-05-17 18:36:00,
2013-05-17 14:40:00,59.3,40.7,30.09,North,355,4.0,4.0,50,0.00,,,0.00,Wunderground v.1.15,2013-05-17 18:40:00,
2013-05-17 14:45:00,59.2,39.5,30.09,NNE,18,4.0,10.0,48,0.00,,,0.00,Wunderground v.1.15,2013-05-17 18:45:00,
2013-05-17 14:55:00,58.2,38.6,30.09,NNW,347,5.0,5.0,48,0.00,,,0.00,Wunderground v.1.15,2013-05-17 18:55:00,
2013-05-17 15:00:00,57.4,38.4,30.10,NE,44,4.0,6.0,49,0.00,,,0.00,Wunderground v.1.15,2013-05-17 19:00:00,
2013-05-17 15:05:00,56.8,38.9,30.10,NW,324,5.0,6.0,51,0.00,,,0.00,Wunderground v.1.15,2013-05-17 19:05:00,
2013-05-17 15:11:00,57.3,39.8,30.10,West,276,4.0,4.0,52,0.00,,,0.00,Wunderground v.1.15,2013-05-17 19:11:00,
2013-05-17 15:15:00,57.4,39.4,30.10,North,355,3.0,9.0,51,0.00,,,0.00,Wunderground v.1.15,2013-05-17 19:15:00,
2013-05-17 15:20:00,57.1,39.6,30.10,WNW,300,4.0,6.0,52,0.00,,,0.00,Wunderground v.1.15,2013-05-17 19:20:00,
2013-05-17 15:25:00,56.9,38.9,30.10,NW,316,4.0,6.0,51,0.00,,,0.00,Wunderground v.1.15,2013-05-17 19:25:00,
2013-05-17 15:30:00,56.7,39.3,30.10,NW,306,3.0,6.0,52,0.00,,,0.00,Wunderground v.1.15,2013-05-17 19:30:00,
2013-05-17 15:35:00,56.7,38.8,30.10,NW,323,3.0,6.0,51,0.00,,,0.00,Wunderground v.1.15,2013-05-17 19:35:00,
2013-05-17 15:41:00,56.9,39.9,30.10,SSE,167,3.0,3.0,53,0.00,,,0.00,Wunderground v.1.15,2013-05-17 19:41:00,
2013-05-17 15:46:00,57.9,40.4,30.10,SW,234,2.0,6.0,52,0.00,,,0.00,Wunderground v.1.15,2013-05-17 19:46:00,
2013-05-17 15:50:00,59.1,39.9,30.10,WSW,248,3.0,3.0,49,0.00,,,0.00,Wunderground v.1.15,2013-05-17 19:50:00,
2013-05-17 15:55:00,59.7,39.4,30.10,ENE,67,5.0,5.0,47,0.00,,,0.00,Wunderground v.1.15,2013-05-17 19:55:00,
2013-05-17 16:00:00,59.8,39.5,30.10,West,266,5.0,5.0,47,0.00,,,0.00,Wunderground v.1.15,2013-05-17 20:00:00,
2013-05-17 16:06:00,59.4,40.2,30.10,NNW,340,5.0,5.0,49,0.00,,,0.00,Wunderground v.1.15,2013-05-17 20:06:00,
2013-05-17 16:10:00,59.1,38.3,30.10,West,280,5.0,5.0,46,0.00,,,0.00,Wunderground v.1.15,2013-05-17 20:10:00,
2013-05-17 16:15:00,58.9,38.1,30.11,West,259,4.0,5.0,46,0.00,,,0.00,Wunderground v.1.15,2013-05-17 20:15:00,
2013-05-17 16:20:00,59.0,38.8,30.11,WSW,238,5.0,11.0,47,0.00,,,0.00,Wunderground v.1.15,2013-05-17 20:20:00,
2013-05-17 16:25:00,58.7,38.5,30.11,WNW,293,5.0,11.0,47,0.00,,,0.00,Wunderground v.1.15,2013-05-17 20:25:00,
2013-05-17 16:30:00,58.3,38.7,30.11,SW,235,4.0,4.0,48,0.00,,,0.00,Wunderground v.1.15,2013-05-17 20:30:00,
2013-05-17 16:35:00,58.3,39.2,30.11,SW,223,4.0,4.0,49,0.00,,,0.00,Wunderground v.1.15,2013-05-17 20:35:00,
2013-05-17 16:40:00,58.4,38.8,30.11,West,271,3.0,5.0,48,0.00,,,0.00,Wunderground v.1.15,2013-05-17 20:40:00,
2013-05-17 16:45:00,58.0,38.4,30.12,West,267,3.0,12.0,48,0.00,,,0.00,Wunderground v.1.15,2013-05-17 20:45:00,
2013-05-17 16:55:00,57.4,38.9,30.11,NNW,344,3.0,8.0,50,0.00,,,0.00,Wunderground v.1.15,2013-05-17 20:55:00,
2013-05-17 17:01:00,57.5,40.0,30.12,WNW,303,2.0,2.0,52,0.00,,,0.00,Wunderground v.1.15,2013-05-17 21:01:00,
2013-05-17 17:05:00,57.6,39.6,30.12,NNW,336,3.0,4.0,51,0.00,,,0.00,Wunderground v.1.15,2013-05-17 21:05:00,
2013-05-17 17:10:00,57.7,39.7,30.12,North,355,3.0,4.0,51,0.00,,,0.00,Wunderground v.1.15,2013-05-17 21:10:00,
2013-05-17 17:15:00,57.6,39.6,30.13,SW,223,3.0,3.0,51,0.00,,,0.00,Wunderground v.1.15,2013-05-17 21:15:00,
2013-05-17 17:20:00,57.4,40.4,30.13,WNW,294,3.0,3.0,53,0.00,,,0.00,Wunderground v.1.15,2013-05-17 21:20:00,
2013-05-17 17:26:00,57.3,39.8,30.13,NW,315,2.0,2.0,52,0.00,,,0.00,Wunderground v.1.15,2013-05-17 21:26:00,
2013-05-17 17:30:00,57.2,39.7,30.13,WSW,239,2.0,2.0,52,0.00,,,0.00,Wunderground v.1.15,2013-05-17 21:30:00,
2013-05-17 17:35:00,57.1,39.6,30.13,West,281,2.0,2.0,52,0.00,,,0.00,Wunderground v.1.15,2013-05-17 21:35:00,
2013-05-17 17:40:00,57.0,40.5,30.13,West,266,1.0,2.0,54,0.00,,,0.00,Wunderground v.1.15,2013-05-17 21:40:00,
2013-05-17 17:45:00,56.8,40.3,30.13,West,266,2.0,4.0,54,0.00,,,0.00,Wunderground v.1.15,2013-05-17 21:45:00,
2013-05-17 17:50:00,56.8,40.3,30.13,NNW,336,2.0,4.0,54,0.00,,,0.00,Wunderground v.1.15,2013-05-17 21:50:00,
2013-05-17 18:00:00,57.5,41.0,30.13,SSW,200,1.0,1.0,54,0.00,,,0.00,Wunderground v.1.15,2013-05-17 22:00:00,
2013-05-17 18:05:00,57.3,40.3,30.14,NNW,336,2.0,2.0,53,0.00,,,0.00,Wunderground v.1.15,2013-05-17 22:05:00,
2013-05-17 18:10:00,57.1,40.1,30.14,SW,236,3.0,4.0,53,0.00,,,0.00,Wunderground v.1.15,2013-05-17 22:10:00,
2013-05-17 18:15:00,56.8,39.8,30.14,North,5,2.0,4.0,53,0.00,,,0.00,Wunderground v.1.15,2013-05-17 22:15:00,
2013-05-17 18:20:00,56.7,39.7,30.14,WNW,293,2.0,2.0,53,0.00,,,0.00,Wunderground v.1.15,2013-05-17 22:20:00,
2013-05-17 18:25:00,56.6,40.1,30.14,North,9,3.0,3.0,54,0.00,,,0.00,Wunderground v.1.15,2013-05-17 22:25:00,
2013-05-17 18:30:00,56.4,40.0,30.14,WNW,300,2.0,2.0,54,0.00,,,0.00,Wunderground v.1.15,2013-05-17 22:30:00,
2013-05-17 18:35:00,56.2,40.2,30.14,SW,214,2.0,2.0,55,0.00,,,0.00,Wunderground v.1.15,2013-05-17 22:35:00,
2013-05-17 18:40:00,55.9,40.4,30.15,NE,49,1.0,1.0,56,0.00,,,0.00,Wunderground v.1.15,2013-05-17 22:40:00,
2013-05-17 18:45:00,55.5,40.5,30.15,NE,49,1.0,1.0,57,0.00,,,0.00,Wunderground v.1.15,2013-05-17 22:45:00,
2013-05-17 18:50:00,55.3,40.3,30.15,NE,49,0.0,0.0,57,0.00,,,0.00,Wunderground v.1.15,2013-05-17 22:50:00,
2013-05-17 18:55:00,55.1,40.6,30.15,NE,49,0.0,0.0,58,0.00,,,0.00,Wunderground v.1.15,2013-05-17 22:55:00,
2013-05-17 19:00:00,55.0,40.9,30.15,South,188,1.0,1.0,59,0.00,,,0.00,Wunderground v.1.15,2013-05-17 23:00:00,
2013-05-17 19:05:00,54.8,41.2,30.16,SSW,212,1.0,1.0,60,0.00,,,0.00,Wunderground v.1.15,2013-05-17 23:05:00,
2013-05-17 19:10:00,54.6,41.4,30.16,SSW,212,1.0,1.0,61,0.00,,,0.00,Wunderground v.1.15,2013-05-17 23:10:00,
2013-05-17 19:15:00,54.5,41.7,30.16,SSW,212,1.0,1.0,62,0.00,,,0.00,Wunderground v.1.15,2013-05-17 23:15:00,
2013-05-17 19:20:00,54.4,43.3,30.16,SSW,212,0.0,0.0,66,0.00,,,0.00,Wunderground v.1.15,2013-05-17 23:20:00,
2013-05-17 19:25:00,54.2,42.3,30.16,SSW,212,0.0,0.0,64,0.00,,,0.00,Wunderground v.1.15,2013-05-17 23:25:00,
2013-05-17 19:30:00,54.1,42.6,30.15,SSW,212,0.0,0.0,65,0.00,,,0.00,Wunderground v.1.15,2013-05-17 23:30:00,
2013-05-17 19:35:00,53.8,43.1,30.16,SSW,212,0.0,0.0,67,0.00,,,0.00,Wunderground v.1.15,2013-05-17 23:35:00,
2013-05-17 19:40:00,53.4,42.7,30.16,SSW,212,0.0,0.0,67,0.00,,,0.00,Wunderground v.1.15,2013-05-17 23:40:00,
2013-05-17 19:45:00,53.2,42.9,30.16,SSW,212,0.0,0.0,68,0.00,,,0.00,Wunderground v.1.15,2013-05-17 23:45:00,
2013-05-17 19:55:00,52.4,42.9,30.16,SSW,212,0.0,0.0,70,0.00,,,0.00,Wunderground v.1.15,2013-05-17 23:55:00,
2013-05-17 20:00:00,52.1,42.6,30.16,SSW,212,0.0,0.0,70,0.00,,,0.00,Wunderground v.1.15,2013-05-18 00:00:00,
2013-05-17 20:05:00,51.7,41.9,30.16,SSW,212,0.0,0.0,69,0.00,,,0.00,Wunderground v.1.15,2013-05-18 00:05:00,
2013-05-17 20:10:00,51.3,42.6,30.16,SSW,212,0.0,0.0,72,0.00,,,0.00,Wunderground v.1.15,2013-05-18 00:10:00,
2013-05-17 20:15:00,50.4,42.1,30.16,SSW,212,0.0,0.0,73,0.00,,,0.00,Wunderground v.1.15,2013-05-18 00:15:00,
2013-05-17 20:25:00,48.8,41.2,30.17,SSW,212,0.0,0.0,75,0.00,,,0.00,Wunderground v.1.15,2013-05-18 00:25:00,
2013-05-17 20:30:00,48.2,41.0,30.17,SSW,212,0.0,0.0,76,0.00,,,0.00,Wunderground v.1.15,2013-05-18 00:30:00,
2013-05-17 20:35:00,47.7,40.8,30.17,SSW,212,0.0,1.0,77,0.00,,,0.00,Wunderground v.1.15,2013-05-18 00:35:00,
2013-05-17 20:40:00,47.1,40.6,30.18,SSW,212,1.0,1.0,78,0.00,,,0.00,Wunderground v.1.15,2013-05-18 00:40:00,
2013-05-17 20:45:00,46.8,41.0,30.18,SSW,212,1.0,1.0,80,0.00,,,0.00,Wunderground v.1.15,2013-05-18 00:45:00,
2013-05-17 20:50:00,46.5,41.0,30.18,SSW,212,0.0,0.0,81,0.00,,,0.00,Wunderground v.1.15,2013-05-18 00:50:00,
2013-05-17 20:55:00,46.2,41.0,30.18,SSW,212,0.0,0.0,82,0.00,,,0.00,Wunderground v.1.15,2013-05-18 00:55:00,
2013-05-17 21:00:00,46.0,40.8,30.18,SSW,212,0.0,0.0,82,0.00,,,0.00,Wunderground v.1.15,2013-05-18 01:00:00,
2013-05-17 21:05:00,45.8,41.2,30.19,SSW,212,0.0,1.0,84,0.00,,,0.00,Wunderground v.1.15,2013-05-18 01:05:00,
2013-05-17 21:10:00,45.8,41.2,30.19,SSW,212,0.0,0.0,84,0.00,,,0.00,Wunderground v.1.15,2013-05-18 01:10:00,
2013-05-17 21:20:00,45.8,41.5,30.19,SSW,212,0.0,0.0,85,0.00,,,0.00,Wunderground v.1.15,2013-05-18 01:20:00,
2013-05-17 21:25:00,45.8,41.5,30.19,SSW,212,0.0,0.0,85,0.00,,,0.00,Wunderground v.1.15,2013-05-18 01:25:00,
2013-05-17 21:30:00,45.8,41.9,30.19,SSW,212,0.0,0.0,86,0.00,,,0.00,Wunderground v.1.15,2013-05-18 01:30:00,
2013-05-17 21:35:00,45.7,41.8,30.19,SSW,212,0.0,0.0,86,0.00,,,0.00,Wunderground v.1.15,2013-05-18 01:35:00,
2013-05-17 21:40:00,45.7,41.8,30.19,SSW,212,0.0,0.0,86,0.27,,,0.02,Wunderground v.1.15,2013-05-18 01:40:00,
2013-05-17 21:45:00,45.7,41.8,30.20,SSW,212,0.0,0.0,86,0.08,,,0.02,Wunderground v.1.15,2013-05-18 01:45:00,
2013-05-17 21:50:00,45.6,41.7,30.20,SSW,212,0.0,0.0,86,0.05,,,0.02,Wunderground v.1.15,2013-05-18 01:50:00,
2013-05-17 22:00:00,45.0,40.8,30.20,SSW,212,0.0,0.0,85,0.00,,,0.02,Wunderground v.1.15,2013-05-18 02:00:00,
2013-05-17 22:05:00,44.7,40.5,30.20,SSW,212,0.0,0.0,85,0.00,,,0.02,Wunderground v.1.15,2013-05-18 02:05:00,
2013-05-17 22:10:00,44.4,40.5,30.20,SSW,212,0.0,0.0,86,0.00,,,0.02,Wunderground v.1.15,2013-05-18 02:10:00,
2013-05-17 22:20:00,43.8,40.2,30.20,SSW,212,0.0,0.0,87,0.00,,,0.02,Wunderground v.1.15,2013-05-18 02:20:00,
2013-05-17 22:50:00,41.6,38.3,30.21,SSW,212,0.0,0.0,88,0.00,,,0.02,Wunderground v.1.15,2013-05-18 02:50:00,
2013-05-17 22:55:00,41.2,38.2,30.21,SSW,212,0.0,1.0,89,0.00,,,0.02,Wunderground v.1.15,2013-05-18 02:55:00,
2013-05-17 23:00:00,41.0,38.0,30.21,SSW,212,0.0,0.0,89,0.00,,,0.02,Wunderground v.1.15,2013-05-18 03:00:00,
2013-05-17 23:06:00,40.6,37.6,30.21,SSW,212,0.0,0.0,89,0.00,,,0.02,Wunderground v.1.15,2013-05-18 03:06:00,
2013-05-17 23:10:00,40.4,37.7,30.22,SSW,212,0.0,0.0,90,0.00,,,0.02,Wunderground v.1.15,2013-05-18 03:10:00,
2013-05-17 23:15:00,40.2,37.5,30.22,SSW,212,0.0,0.0,90,0.00,,,0.02,Wunderground v.1.15,2013-05-18 03:15:00,
2013-05-17 23:20:00,40.0,37.3,30.22,SSW,212,0.0,0.0,90,0.00,,,0.02,Wunderground v.1.15,2013-05-18 03:20:00,
2013-05-17 23:25:00,39.8,37.4,30.22,SSW,212,0.0,0.0,91,0.00,,,0.02,Wunderground v.1.15,2013-05-18 03:25:00,
2013-05-17 23:30:00,39.9,37.5,30.22,SSW,212,0.0,0.0,91,0.00,,,0.02,Wunderground v.1.15,2013-05-18 03:30:00,
2013-05-17 23:35:00,40.1,38.0,30.22,SSW,212,0.0,0.0,92,0.00,,,0.02,Wunderground v.1.15,2013-05-18 03:35:00,
2013-05-17 23:40:00,40.1,38.0,30.23,SSW,212,0.0,0.0,92,0.00,,,0.02,Wunderground v.1.15,2013-05-18 03:40:00,
2013-05-17 23:45:00,40.3,38.2,30.23,SSW,212,0.0,0.0,92,0.00,,,0.02,Wunderground v.1.15,2013-05-18 03:45:00,
2013-05-17 23:50:00,40.3,38.2,30.23,SSW,212,0.0,0.0,92,0.00,,,0.02,Wunderground v.1.15,2013-05-18 03:50:00,
2013-05-17 23:55:00,40.5,38.6,30.23,SSW,212,0.0,0.0,93,0.00,,,0.02,Wunderground v.1.15,2013-05-18 03:55:00,